Arden, NC

6:34 AM EST on February 24, 2017 (GMT -0500)
Asheville Regional

Weather History for KAVL - April, 2013

Change the Weather History Date:

Saturday, April 27, 2013

  Actual Average Record
Temperature  
Mean Temperature 53 °F 58 °F  
Max Temperature 55 °F 71 °F 88 °F (1986)
Min Temperature 50 °F 46 °F 30 °F (1972)
Degree Days  
Heating Degree Days 12 7  
Month to date heating degree days 264 281  
Since 1 July heating degree days 3915 4053  
Cooling Degree Days 0 0  
Month to date cooling degree days 5 0  
Year to date cooling degree days 5 1  
Growing Degree Days 2 (Base 50)    
Moisture  
Dew Point 49 °F    
Average Humidity 81    
Maximum Humidity 100    
Minimum Humidity 61    
Precipitation  
Precipitation 0.82 in 0.11 in 0.98 in (1912)
Month to date precipitation 3.91 3.00  
Year to date precipitation 19.37 14.26  
Snow  
Snow 0.00 in 0.00 in 0.30 in (1928)
Month to date snowfall 0.0 0.7  
Since 1 July snowfall 0.5 9.9  
Snow Depth 0.00 in    
Sea Level Pressure  
Sea Level Pressure 30.31 in    
Wind  
Wind Speed 3 mph (SSE)    
Max Wind Speed 8 mph    
Max Gust Speed 13 mph    
Visibility 7 miles    
Events Rain    
T = Trace of Precipitation, MM = Missing Value Source: NWS Daily Summary

Daily Weather History Graph

Daily Weather History Graph

Search for Another Location

Airport or City:

Trip Planner

Search our weather history database for the weather conditions in past years. The results will help you decide how hot, cold, wet, or windy it might be!

Date:

Astronomy

Apr. 27, 2013 Rise Set
Actual Time 6:42 AM EDT 8:13 PM EDT
Civil Twilight 6:15 AM EDT 8:40 PM EDT
Nautical Twilight 5:43 AM EDT 9:12 PM EDT
Astronomical Twilight 5:09 AM EDT 9:46 PM EDT
Moon 10:37 PM EDT (4/27) 8:03 AM EDT (4/27)
Length of Visible Light 14h 24m
Length of Day
13h 30m
Waning Gibbous, 95% of the Moon is Illuminated
Apr 27
Waning Gibbous
May 2
Last Quarter
May 9
New
May 18
First Quarter
May 25
Full

Hourly Weather History & Observations

Time (EDT) Temp. Dew Point Humidity Pressure Visibility Wind Dir Wind Speed Gust Speed Precip Events Conditions
12:54 AM 55.0 °F 42.1 °F 62% 30.36 in 10.0 mi NNW 6.9 mph - N/A   Overcast
1:54 AM 54.0 °F 43.0 °F 66% 30.34 in 10.0 mi Calm Calm - N/A   Overcast
2:54 AM 55.0 °F 43.0 °F 64% 30.32 in 10.0 mi NNW 6.9 mph - N/A   Overcast
3:54 AM 53.1 °F 45.0 °F 74% 30.31 in 10.0 mi Calm Calm - N/A   Overcast
4:54 AM 53.1 °F 45.0 °F 74% 30.31 in 10.0 mi Calm Calm - 0.00 in   Overcast
5:54 AM 52.0 °F 46.9 °F 83% 30.31 in 10.0 mi Calm Calm - 0.00 in Rain Light Rain
6:54 AM 51.1 °F 46.9 °F 86% 30.32 in 10.0 mi Calm Calm - 0.01 in Rain Light Rain
7:54 AM 52.0 °F 48.0 °F 86% 30.32 in 10.0 mi Calm Calm - 0.00 in   Overcast
8:54 AM 52.0 °F 48.0 °F 86% 30.34 in 10.0 mi WNW 3.5 mph - N/A   Overcast
9:54 AM 54.0 °F 46.0 °F 75% 30.32 in 10.0 mi NW 4.6 mph - N/A   Overcast
10:54 AM 54.0 °F 46.9 °F 77% 30.32 in 10.0 mi SSW 4.6 mph - N/A   Overcast
11:54 AM 54.0 °F 48.0 °F 80% 30.32 in 10.0 mi South 4.6 mph - N/A   Overcast
12:54 PM 54.0 °F 48.9 °F 83% 30.34 in 7.0 mi SSW 4.6 mph - 0.02 in Rain Light Rain
1:54 PM 52.0 °F 50.0 °F 93% 30.35 in 5.0 mi SSE 3.5 mph - 0.08 in Rain Rain
2:41 PM 51.8 °F 51.8 °F 100% 30.36 in 2.5 mi Calm Calm - 0.13 in Rain Rain
2:44 PM 51.8 °F 50.0 °F 94% 30.37 in 2.5 mi Calm Calm - 0.13 in Rain Rain
2:52 PM 51.8 °F 51.8 °F 100% 30.37 in 2.0 mi Calm Calm - 0.16 in Rain Heavy Rain
2:54 PM 52.0 °F 51.1 °F 97% 30.34 in 2.0 mi Calm Calm - 0.17 in Rain Heavy Rain
3:06 PM 51.8 °F 51.8 °F 100% 30.35 in 4.0 mi Calm Calm - 0.03 in Rain Rain
3:15 PM 51.8 °F 51.8 °F 100% 30.35 in 2.0 mi ESE 4.6 mph - 0.05 in Rain Rain
3:29 PM 51.8 °F 51.8 °F 100% 30.34 in 2.0 mi ESE 3.5 mph - 0.07 in Rain Rain
3:54 PM 52.0 °F 51.1 °F 97% 30.31 in 2.0 mi Calm Calm - 0.12 in Rain Rain
4:20 PM 53.6 °F 51.8 °F 94% 30.34 in 2.0 mi Calm Calm - 0.05 in Rain Light Rain
4:27 PM 53.6 °F 51.8 °F 94% 30.34 in 2.0 mi Calm Calm - 0.06 in Rain Rain
4:39 PM 51.8 °F 51.8 °F 100% 30.32 in 2.0 mi ESE 4.6 mph - 0.09 in Rain Rain
4:54 PM 52.0 °F 51.1 °F 97% 30.29 in 2.0 mi SE 4.6 mph - 0.12 in Rain Light Rain
5:54 PM 51.1 °F 48.9 °F 92% 30.28 in 2.0 mi SE 5.8 mph - 0.04 in Rain Rain
6:05 PM 51.8 °F 48.2 °F 88% 30.30 in 4.0 mi SE 6.9 mph - 0.01 in Rain Rain
6:41 PM 51.8 °F 50.0 °F 94% 30.31 in 3.0 mi South 8.1 mph - 0.11 in Rain Rain
6:54 PM 51.1 °F 50.0 °F 96% 30.29 in 3.0 mi South 5.8 mph - 0.15 in Rain Rain
7:39 PM 50.0 °F 48.2 °F 94% 30.28 in 6.0 mi SSE 4.6 mph - 0.11 in Rain Light Rain
7:54 PM 50.0 °F 50.0 °F 100% 30.27 in 8.0 mi SE 3.5 mph - 0.11 in   Overcast
8:01 PM 50.0 °F 48.2 °F 94% 30.29 in 9.0 mi SSE 3.5 mph - N/A   Overcast
8:42 PM 51.8 °F 48.2 °F 88% 30.27 in 10.0 mi Calm Calm - 0.00 in   Overcast
8:54 PM 51.1 °F 48.9 °F 92% 30.26 in 10.0 mi SSE 3.5 mph - 0.00 in   Overcast
9:54 PM 51.1 °F 50.0 °F 96% 30.25 in 8.0 mi SSE 3.5 mph - 0.00 in Rain Light Rain
10:21 PM 51.8 °F 50.0 °F 94% 30.27 in 9.0 mi SSE 3.5 mph - 0.00 in   Overcast
10:54 PM 51.1 °F 50.0 °F 96% 30.25 in 9.0 mi Calm Calm - 0.00 in   Overcast
11:13 PM 51.8 °F 50.0 °F 94% 30.27 in 8.0 mi SSE 3.5 mph - N/A   Overcast
11:27 PM 51.8 °F 50.0 °F 94% 30.26 in 10.0 mi SE 3.5 mph - N/A   Overcast
11:54 PM 51.1 °F 48.9 °F 92% 30.24 in 10.0 mi SE 3.5 mph - N/A   Overcast